Index of /20260417/WXO-DD/model_rdps/10km/00/013
Name Last modified Size Description
Parent Directory -
20260417T00Z_MSC_RDPS_AbsoluteVorticity_IsbL-0250_RLatLon0.09_PT013H.grib2 2026-04-17 02:42 608K
20260417T00Z_MSC_RDPS_AbsoluteVorticity_IsbL-0500_RLatLon0.09_PT013H.grib2 2026-04-17 02:42 561K
20260417T00Z_MSC_RDPS_AbsoluteVorticity_IsbL-0700_RLatLon0.09_PT013H.grib2 2026-04-17 02:42 616K
20260417T00Z_MSC_RDPS_AbsoluteVorticity_IsbL-0850_RLatLon0.09_PT013H.grib2 2026-04-17 02:42 784K
20260417T00Z_MSC_RDPS_AirTemp_AGL-120m_RLatLon0.09_PT013H.grib2 2026-04-17 02:42 385K
20260417T00Z_MSC_RDPS_AirTemp_AGL-2m_RLatLon0.09_PT013H.grib2 2026-04-17 02:42 648K
20260417T00Z_MSC_RDPS_AirTemp_AGL-40m_RLatLon0.09_PT013H.grib2 2026-04-17 02:42 404K
20260417T00Z_MSC_RDPS_AirTemp_AGL-80m_RLatLon0.09_PT013H.grib2 2026-04-17 02:42 394K
20260417T00Z_MSC_RDPS_AirTemp_IsbL-0001_RLatLon0.09_PT013H.grib2 2026-04-17 02:42 230K
20260417T00Z_MSC_RDPS_AirTemp_IsbL-0005_RLatLon0.09_PT013H.grib2 2026-04-17 02:42 328K
20260417T00Z_MSC_RDPS_AirTemp_IsbL-0010_RLatLon0.09_PT013H.grib2 2026-04-17 02:42 299K
20260417T00Z_MSC_RDPS_AirTemp_IsbL-0020_RLatLon0.09_PT013H.grib2 2026-04-17 02:42 317K
20260417T00Z_MSC_RDPS_AirTemp_IsbL-0030_RLatLon0.09_PT013H.grib2 2026-04-17 02:42 375K
20260417T00Z_MSC_RDPS_AirTemp_IsbL-0050_RLatLon0.09_PT013H.grib2 2026-04-17 02:42 326K
20260417T00Z_MSC_RDPS_AirTemp_IsbL-0100_RLatLon0.09_PT013H.grib2 2026-04-17 02:42 391K
20260417T00Z_MSC_RDPS_AirTemp_IsbL-0150_RLatLon0.09_PT013H.grib2 2026-04-17 02:42 406K
20260417T00Z_MSC_RDPS_AirTemp_IsbL-0175_RLatLon0.09_PT013H.grib2 2026-04-17 02:42 405K
20260417T00Z_MSC_RDPS_AirTemp_IsbL-0200_RLatLon0.09_PT013H.grib2 2026-04-17 02:42 413K
20260417T00Z_MSC_RDPS_AirTemp_IsbL-0225_RLatLon0.09_PT013H.grib2 2026-04-17 02:42 414K
20260417T00Z_MSC_RDPS_AirTemp_IsbL-0250_RLatLon0.09_PT013H.grib2 2026-04-17 02:42 424K
20260417T00Z_MSC_RDPS_AirTemp_IsbL-0275_RLatLon0.09_PT013H.grib2 2026-04-17 02:42 406K
20260417T00Z_MSC_RDPS_AirTemp_IsbL-0300_RLatLon0.09_PT013H.grib2 2026-04-17 02:42 411K
20260417T00Z_MSC_RDPS_AirTemp_IsbL-0350_RLatLon0.09_PT013H.grib2 2026-04-17 02:42 421K
20260417T00Z_MSC_RDPS_AirTemp_IsbL-0400_RLatLon0.09_PT013H.grib2 2026-04-17 02:42 421K
20260417T00Z_MSC_RDPS_AirTemp_IsbL-0450_RLatLon0.09_PT013H.grib2 2026-04-17 02:42 392K
20260417T00Z_MSC_RDPS_AirTemp_IsbL-0500_RLatLon0.09_PT013H.grib2 2026-04-17 02:42 403K
20260417T00Z_MSC_RDPS_AirTemp_IsbL-0550_RLatLon0.09_PT013H.grib2 2026-04-17 02:42 422K
20260417T00Z_MSC_RDPS_AirTemp_IsbL-0600_RLatLon0.09_PT013H.grib2 2026-04-17 02:42 442K
20260417T00Z_MSC_RDPS_AirTemp_IsbL-0650_RLatLon0.09_PT013H.grib2 2026-04-17 02:42 454K
20260417T00Z_MSC_RDPS_AirTemp_IsbL-0700_RLatLon0.09_PT013H.grib2 2026-04-17 02:42 480K
20260417T00Z_MSC_RDPS_AirTemp_IsbL-0750_RLatLon0.09_PT013H.grib2 2026-04-17 02:42 518K
20260417T00Z_MSC_RDPS_AirTemp_IsbL-0800_RLatLon0.09_PT013H.grib2 2026-04-17 02:42 576K
20260417T00Z_MSC_RDPS_AirTemp_IsbL-0850_RLatLon0.09_PT013H.grib2 2026-04-17 02:42 507K
20260417T00Z_MSC_RDPS_AirTemp_IsbL-0875_RLatLon0.09_PT013H.grib2 2026-04-17 02:42 521K
20260417T00Z_MSC_RDPS_AirTemp_IsbL-0900_RLatLon0.09_PT013H.grib2 2026-04-17 02:42 530K
20260417T00Z_MSC_RDPS_AirTemp_IsbL-0925_RLatLon0.09_PT013H.grib2 2026-04-17 02:42 530K
20260417T00Z_MSC_RDPS_AirTemp_IsbL-0950_RLatLon0.09_PT013H.grib2 2026-04-17 02:42 531K
20260417T00Z_MSC_RDPS_AirTemp_IsbL-0970_RLatLon0.09_PT013H.grib2 2026-04-17 02:42 527K
20260417T00Z_MSC_RDPS_AirTemp_IsbL-0985_RLatLon0.09_PT013H.grib2 2026-04-17 02:42 517K
20260417T00Z_MSC_RDPS_AirTemp_IsbL-1000_RLatLon0.09_PT013H.grib2 2026-04-17 02:42 512K
20260417T00Z_MSC_RDPS_AirTemp_IsbL-1015_RLatLon0.09_PT013H.grib2 2026-04-17 02:42 508K
20260417T00Z_MSC_RDPS_Albedo_Sfc_RLatLon0.09_PT013H.grib2 2026-04-17 02:42 163K
20260417T00Z_MSC_RDPS_CAPE_Sfc_RLatLon0.09_PT013H.grib2 2026-04-17 02:42 1.7M
20260417T00Z_MSC_RDPS_CIN_Sfc_RLatLon0.09_PT013H.grib2 2026-04-17 02:42 1.2M
20260417T00Z_MSC_RDPS_CloudWater_EAtm_RLatLon0.09_PT013H.grib2 2026-04-17 02:42 210K
20260417T00Z_MSC_RDPS_ConvectivePrecip-Accum_Sfc_RLatLon0.09_PT013H.grib2 2026-04-17 02:42 649K
20260417T00Z_MSC_RDPS_DewPointDepression_AGL-2m_RLatLon0.09_PT013H.grib2 2026-04-17 02:42 392K
20260417T00Z_MSC_RDPS_DewPointDepression_IsbL-0001_RLatLon0.09_PT013H.grib2 2026-04-17 02:42 193
20260417T00Z_MSC_RDPS_DewPointDepression_IsbL-0005_RLatLon0.09_PT013H.grib2 2026-04-17 02:42 193
20260417T00Z_MSC_RDPS_DewPointDepression_IsbL-0010_RLatLon0.09_PT013H.grib2 2026-04-17 02:42 193
20260417T00Z_MSC_RDPS_DewPointDepression_IsbL-0020_RLatLon0.09_PT013H.grib2 2026-04-17 02:42 193
20260417T00Z_MSC_RDPS_DewPointDepression_IsbL-0030_RLatLon0.09_PT013H.grib2 2026-04-17 02:42 11K
20260417T00Z_MSC_RDPS_DewPointDepression_IsbL-0050_RLatLon0.09_PT013H.grib2 2026-04-17 02:42 104K
20260417T00Z_MSC_RDPS_DewPointDepression_IsbL-0100_RLatLon0.09_PT013H.grib2 2026-04-17 02:42 122K
20260417T00Z_MSC_RDPS_DewPointDepression_IsbL-0150_RLatLon0.09_PT013H.grib2 2026-04-17 02:42 140K
20260417T00Z_MSC_RDPS_DewPointDepression_IsbL-0175_RLatLon0.09_PT013H.grib2 2026-04-17 02:42 174K
20260417T00Z_MSC_RDPS_DewPointDepression_IsbL-0200_RLatLon0.09_PT013H.grib2 2026-04-17 02:42 204K
20260417T00Z_MSC_RDPS_DewPointDepression_IsbL-0225_RLatLon0.09_PT013H.grib2 2026-04-17 02:42 243K
20260417T00Z_MSC_RDPS_DewPointDepression_IsbL-0250_RLatLon0.09_PT013H.grib2 2026-04-17 02:42 293K
20260417T00Z_MSC_RDPS_DewPointDepression_IsbL-0275_RLatLon0.09_PT013H.grib2 2026-04-17 02:42 304K
20260417T00Z_MSC_RDPS_DewPointDepression_IsbL-0300_RLatLon0.09_PT013H.grib2 2026-04-17 02:42 319K
20260417T00Z_MSC_RDPS_DewPointDepression_IsbL-0350_RLatLon0.09_PT013H.grib2 2026-04-17 02:42 321K
20260417T00Z_MSC_RDPS_DewPointDepression_IsbL-0400_RLatLon0.09_PT013H.grib2 2026-04-17 02:42 330K
20260417T00Z_MSC_RDPS_DewPointDepression_IsbL-0450_RLatLon0.09_PT013H.grib2 2026-04-17 02:42 335K
20260417T00Z_MSC_RDPS_DewPointDepression_IsbL-0500_RLatLon0.09_PT013H.grib2 2026-04-17 02:42 339K
20260417T00Z_MSC_RDPS_DewPointDepression_IsbL-0550_RLatLon0.09_PT013H.grib2 2026-04-17 02:42 354K
20260417T00Z_MSC_RDPS_DewPointDepression_IsbL-0600_RLatLon0.09_PT013H.grib2 2026-04-17 02:42 369K
20260417T00Z_MSC_RDPS_DewPointDepression_IsbL-0650_RLatLon0.09_PT013H.grib2 2026-04-17 02:42 377K
20260417T00Z_MSC_RDPS_DewPointDepression_IsbL-0700_RLatLon0.09_PT013H.grib2 2026-04-17 02:42 386K
20260417T00Z_MSC_RDPS_DewPointDepression_IsbL-0750_RLatLon0.09_PT013H.grib2 2026-04-17 02:42 411K
20260417T00Z_MSC_RDPS_DewPointDepression_IsbL-0800_RLatLon0.09_PT013H.grib2 2026-04-17 02:42 446K
20260417T00Z_MSC_RDPS_DewPointDepression_IsbL-0850_RLatLon0.09_PT013H.grib2 2026-04-17 02:42 473K
20260417T00Z_MSC_RDPS_DewPointDepression_IsbL-0875_RLatLon0.09_PT013H.grib2 2026-04-17 02:42 467K
20260417T00Z_MSC_RDPS_DewPointDepression_IsbL-0900_RLatLon0.09_PT013H.grib2 2026-04-17 02:42 458K
20260417T00Z_MSC_RDPS_DewPointDepression_IsbL-0925_RLatLon0.09_PT013H.grib2 2026-04-17 02:42 446K
20260417T00Z_MSC_RDPS_DewPointDepression_IsbL-0950_RLatLon0.09_PT013H.grib2 2026-04-17 02:42 438K
20260417T00Z_MSC_RDPS_DewPointDepression_IsbL-0970_RLatLon0.09_PT013H.grib2 2026-04-17 02:42 435K
20260417T00Z_MSC_RDPS_DewPointDepression_IsbL-0985_RLatLon0.09_PT013H.grib2 2026-04-17 02:42 432K
20260417T00Z_MSC_RDPS_DewPointDepression_IsbL-1000_RLatLon0.09_PT013H.grib2 2026-04-17 02:42 430K
20260417T00Z_MSC_RDPS_DewPointDepression_IsbL-1015_RLatLon0.09_PT013H.grib2 2026-04-17 02:42 422K
20260417T00Z_MSC_RDPS_DewPoint_AGL-2m_RLatLon0.09_PT013H.grib2 2026-04-17 02:42 404K
20260417T00Z_MSC_RDPS_DownwardLongwaveRadiationFlux-Accum_Sfc_RLatLon0.09_PT013H.grib2 2026-04-17 02:42 482K
20260417T00Z_MSC_RDPS_DownwardShortwaveRadiationFlux-Accum_NTAtm_RLatLon0.09_PT013H.grib2 2026-04-17 02:42 116K
20260417T00Z_MSC_RDPS_DownwardShortwaveRadiationFlux-Accum_Sfc_RLatLon0.09_PT013H.grib2 2026-04-17 02:42 529K
20260417T00Z_MSC_RDPS_FreezingRain-Accum1h_Sfc_RLatLon0.09_PT013H.grib2 2026-04-17 02:42 25K
20260417T00Z_MSC_RDPS_FreezingRain-Accum_Sfc_RLatLon0.09_PT013H.grib2 2026-04-17 02:42 79K
20260417T00Z_MSC_RDPS_GeopotentialHeight_IsbL-0001_RLatLon0.09_PT013H.grib2 2026-04-17 02:42 208K
20260417T00Z_MSC_RDPS_GeopotentialHeight_IsbL-0005_RLatLon0.09_PT013H.grib2 2026-04-17 02:42 234K
20260417T00Z_MSC_RDPS_GeopotentialHeight_IsbL-0010_RLatLon0.09_PT013H.grib2 2026-04-17 02:42 307K
20260417T00Z_MSC_RDPS_GeopotentialHeight_IsbL-0020_RLatLon0.09_PT013H.grib2 2026-04-17 02:42 335K
20260417T00Z_MSC_RDPS_GeopotentialHeight_IsbL-0030_RLatLon0.09_PT013H.grib2 2026-04-17 02:42 338K
20260417T00Z_MSC_RDPS_GeopotentialHeight_IsbL-0050_RLatLon0.09_PT013H.grib2 2026-04-17 02:42 238K
20260417T00Z_MSC_RDPS_GeopotentialHeight_IsbL-0100_RLatLon0.09_PT013H.grib2 2026-04-17 02:42 221K
20260417T00Z_MSC_RDPS_GeopotentialHeight_IsbL-0150_RLatLon0.09_PT013H.grib2 2026-04-17 02:42 262K
20260417T00Z_MSC_RDPS_GeopotentialHeight_IsbL-0175_RLatLon0.09_PT013H.grib2 2026-04-17 02:42 263K
20260417T00Z_MSC_RDPS_GeopotentialHeight_IsbL-0200_RLatLon0.09_PT013H.grib2 2026-04-17 02:42 265K
20260417T00Z_MSC_RDPS_GeopotentialHeight_IsbL-0225_RLatLon0.09_PT013H.grib2 2026-04-17 02:42 267K
20260417T00Z_MSC_RDPS_GeopotentialHeight_IsbL-0250_RLatLon0.09_PT013H.grib2 2026-04-17 02:42 268K
20260417T00Z_MSC_RDPS_GeopotentialHeight_IsbL-0275_RLatLon0.09_PT013H.grib2 2026-04-17 02:42 267K
20260417T00Z_MSC_RDPS_GeopotentialHeight_IsbL-0300_RLatLon0.09_PT013H.grib2 2026-04-17 02:42 266K
20260417T00Z_MSC_RDPS_GeopotentialHeight_IsbL-0350_RLatLon0.09_PT013H.grib2 2026-04-17 02:42 231K
20260417T00Z_MSC_RDPS_GeopotentialHeight_IsbL-0400_RLatLon0.09_PT013H.grib2 2026-04-17 02:42 227K
20260417T00Z_MSC_RDPS_GeopotentialHeight_IsbL-0450_RLatLon0.09_PT013H.grib2 2026-04-17 02:42 223K
20260417T00Z_MSC_RDPS_GeopotentialHeight_IsbL-0500_RLatLon0.09_PT013H.grib2 2026-04-17 02:42 290K
20260417T00Z_MSC_RDPS_GeopotentialHeight_IsbL-0550_RLatLon0.09_PT013H.grib2 2026-04-17 02:42 285K
20260417T00Z_MSC_RDPS_GeopotentialHeight_IsbL-0600_RLatLon0.09_PT013H.grib2 2026-04-17 02:42 283K
20260417T00Z_MSC_RDPS_GeopotentialHeight_IsbL-0650_RLatLon0.09_PT013H.grib2 2026-04-17 02:42 280K
20260417T00Z_MSC_RDPS_GeopotentialHeight_IsbL-0700_RLatLon0.09_PT013H.grib2 2026-04-17 02:42 251K
20260417T00Z_MSC_RDPS_GeopotentialHeight_IsbL-0750_RLatLon0.09_PT013H.grib2 2026-04-17 02:42 253K
20260417T00Z_MSC_RDPS_GeopotentialHeight_IsbL-0800_RLatLon0.09_PT013H.grib2 2026-04-17 02:42 260K
20260417T00Z_MSC_RDPS_GeopotentialHeight_IsbL-0850_RLatLon0.09_PT013H.grib2 2026-04-17 02:42 353K
20260417T00Z_MSC_RDPS_GeopotentialHeight_IsbL-0875_RLatLon0.09_PT013H.grib2 2026-04-17 02:42 356K
20260417T00Z_MSC_RDPS_GeopotentialHeight_IsbL-0900_RLatLon0.09_PT013H.grib2 2026-04-17 02:42 361K
20260417T00Z_MSC_RDPS_GeopotentialHeight_IsbL-0925_RLatLon0.09_PT013H.grib2 2026-04-17 02:42 365K
20260417T00Z_MSC_RDPS_GeopotentialHeight_IsbL-0950_RLatLon0.09_PT013H.grib2 2026-04-17 02:42 368K
20260417T00Z_MSC_RDPS_GeopotentialHeight_IsbL-0970_RLatLon0.09_PT013H.grib2 2026-04-17 02:42 374K
20260417T00Z_MSC_RDPS_GeopotentialHeight_IsbL-0985_RLatLon0.09_PT013H.grib2 2026-04-17 02:42 382K
20260417T00Z_MSC_RDPS_GeopotentialHeight_IsbL-1000_RLatLon0.09_PT013H.grib2 2026-04-17 02:42 395K
20260417T00Z_MSC_RDPS_GeopotentialHeight_IsbL-1015_RLatLon0.09_PT013H.grib2 2026-04-17 02:42 410K
20260417T00Z_MSC_RDPS_Humidex_Sfc_RLatLon0.09_PT013H.grib2 2026-04-17 02:42 2.4M
20260417T00Z_MSC_RDPS_IcePellets-Accum1h_Sfc_RLatLon0.09_PT013H.grib2 2026-04-17 02:42 12K
20260417T00Z_MSC_RDPS_IcePellets-Accum_Sfc_RLatLon0.09_PT013H.grib2 2026-04-17 02:42 23K
20260417T00Z_MSC_RDPS_KIndex_Sfc_RLatLon0.09_PT013H.grib2 2026-04-17 02:42 2.4M
20260417T00Z_MSC_RDPS_LatentHeatNetFlux_Sfc_RLatLon0.09_PT013H.grib2 2026-04-17 02:42 415K
20260417T00Z_MSC_RDPS_LiftedIndex-MU-VT_IsbL-0500_RLatLon0.09_PT013H.grib2 2026-04-17 02:42 2.4M
20260417T00Z_MSC_RDPS_NetLongwaveRadiationFlux-Accum_Sfc_RLatLon0.09_PT013H.grib2 2026-04-17 02:42 625K
20260417T00Z_MSC_RDPS_NetShortwaveRadiationFlux-Accum_Sfc_RLatLon0.09_PT013H.grib2 2026-04-17 02:42 510K
20260417T00Z_MSC_RDPS_PlanetaryBoundaryLayerHeight_Sfc_RLatLon0.09_PT013H.grib2 2026-04-17 02:42 1.1M
20260417T00Z_MSC_RDPS_Precip-Accum1h_Sfc_RLatLon0.09_PT013H.grib2 2026-04-17 02:42 1.4M
20260417T00Z_MSC_RDPS_Precip-Accum_Sfc_RLatLon0.09_PT013H.grib2 2026-04-17 02:42 1.7M
20260417T00Z_MSC_RDPS_PrecipRate_Sfc_RLatLon0.09_PT013H.grib2 2026-04-17 02:42 184K
20260417T00Z_MSC_RDPS_PrecipType-Instant_Sfc_RLatLon0.09_PT013H.grib2 2026-04-17 02:42 563K
20260417T00Z_MSC_RDPS_Pressure-Trend3h_Sfc_RLatLon0.09_PT013H.grib2 2026-04-17 02:42 1.2M
20260417T00Z_MSC_RDPS_Pressure_MSL_RLatLon0.09_PT013H.grib2 2026-04-17 02:42 296K
20260417T00Z_MSC_RDPS_Pressure_PVU-1.5_RLatLon0.09_PT013H.grib2 2026-04-17 02:42 2.4M
20260417T00Z_MSC_RDPS_Pressure_PVU-1_RLatLon0.09_PT013H.grib2 2026-04-17 02:42 2.4M
20260417T00Z_MSC_RDPS_Pressure_PVU-2_RLatLon0.09_PT013H.grib2 2026-04-17 02:42 2.4M
20260417T00Z_MSC_RDPS_Pressure_Sfc_RLatLon0.09_PT013H.grib2 2026-04-17 02:42 501K
20260417T00Z_MSC_RDPS_RadiativeTemp_Sfc_RLatLon0.09_PT013H.grib2 2026-04-17 02:42 312K
20260417T00Z_MSC_RDPS_Rain-Accum1h_Sfc_RLatLon0.09_PT013H.grib2 2026-04-17 02:42 624K
20260417T00Z_MSC_RDPS_Rain-Accum_Sfc_RLatLon0.09_PT013H.grib2 2026-04-17 02:42 1.2M
20260417T00Z_MSC_RDPS_RelativeHumidity_AGL-2m_RLatLon0.09_PT013H.grib2 2026-04-17 02:42 1.0M
20260417T00Z_MSC_RDPS_RelativeHumidity_IsbL-0010_RLatLon0.09_PT013H.grib2 2026-04-17 02:42 646K
20260417T00Z_MSC_RDPS_RelativeHumidity_IsbL-0020_RLatLon0.09_PT013H.grib2 2026-04-17 02:42 403K
20260417T00Z_MSC_RDPS_RelativeHumidity_IsbL-0030_RLatLon0.09_PT013H.grib2 2026-04-17 02:42 357K
20260417T00Z_MSC_RDPS_RelativeHumidity_IsbL-0050_RLatLon0.09_PT013H.grib2 2026-04-17 02:42 389K
20260417T00Z_MSC_RDPS_RelativeHumidity_IsbL-0100_RLatLon0.09_PT013H.grib2 2026-04-17 02:42 366K
20260417T00Z_MSC_RDPS_RelativeHumidity_IsbL-0150_RLatLon0.09_PT013H.grib2 2026-04-17 02:42 372K
20260417T00Z_MSC_RDPS_RelativeHumidity_IsbL-0175_RLatLon0.09_PT013H.grib2 2026-04-17 02:42 456K
20260417T00Z_MSC_RDPS_RelativeHumidity_IsbL-0200_RLatLon0.09_PT013H.grib2 2026-04-17 02:42 531K
20260417T00Z_MSC_RDPS_RelativeHumidity_IsbL-0225_RLatLon0.09_PT013H.grib2 2026-04-17 02:42 599K
20260417T00Z_MSC_RDPS_RelativeHumidity_IsbL-0250_RLatLon0.09_PT013H.grib2 2026-04-17 02:42 679K
20260417T00Z_MSC_RDPS_RelativeHumidity_IsbL-0275_RLatLon0.09_PT013H.grib2 2026-04-17 02:42 709K
20260417T00Z_MSC_RDPS_RelativeHumidity_IsbL-0300_RLatLon0.09_PT013H.grib2 2026-04-17 02:42 752K
20260417T00Z_MSC_RDPS_RelativeHumidity_IsbL-0350_RLatLon0.09_PT013H.grib2 2026-04-17 02:42 768K
20260417T00Z_MSC_RDPS_RelativeHumidity_IsbL-0400_RLatLon0.09_PT013H.grib2 2026-04-17 02:42 781K
20260417T00Z_MSC_RDPS_RelativeHumidity_IsbL-0450_RLatLon0.09_PT013H.grib2 2026-04-17 02:42 787K
20260417T00Z_MSC_RDPS_RelativeHumidity_IsbL-0500_RLatLon0.09_PT013H.grib2 2026-04-17 02:42 804K
20260417T00Z_MSC_RDPS_RelativeHumidity_IsbL-0550_RLatLon0.09_PT013H.grib2 2026-04-17 02:42 827K
20260417T00Z_MSC_RDPS_RelativeHumidity_IsbL-0600_RLatLon0.09_PT013H.grib2 2026-04-17 02:42 850K
20260417T00Z_MSC_RDPS_RelativeHumidity_IsbL-0650_RLatLon0.09_PT013H.grib2 2026-04-17 02:42 861K
20260417T00Z_MSC_RDPS_RelativeHumidity_IsbL-0700_RLatLon0.09_PT013H.grib2 2026-04-17 02:42 882K
20260417T00Z_MSC_RDPS_RelativeHumidity_IsbL-0750_RLatLon0.09_PT013H.grib2 2026-04-17 02:42 928K
20260417T00Z_MSC_RDPS_RelativeHumidity_IsbL-0800_RLatLon0.09_PT013H.grib2 2026-04-17 02:42 1.0M
20260417T00Z_MSC_RDPS_RelativeHumidity_IsbL-0850_RLatLon0.09_PT013H.grib2 2026-04-17 02:42 1.0M
20260417T00Z_MSC_RDPS_RelativeHumidity_IsbL-0875_RLatLon0.09_PT013H.grib2 2026-04-17 02:42 1.1M
20260417T00Z_MSC_RDPS_RelativeHumidity_IsbL-0900_RLatLon0.09_PT013H.grib2 2026-04-17 02:42 1.1M
20260417T00Z_MSC_RDPS_RelativeHumidity_IsbL-0925_RLatLon0.09_PT013H.grib2 2026-04-17 02:42 1.1M
20260417T00Z_MSC_RDPS_RelativeHumidity_IsbL-0950_RLatLon0.09_PT013H.grib2 2026-04-17 02:42 1.1M
20260417T00Z_MSC_RDPS_RelativeHumidity_IsbL-0970_RLatLon0.09_PT013H.grib2 2026-04-17 02:42 1.1M
20260417T00Z_MSC_RDPS_RelativeHumidity_IsbL-0985_RLatLon0.09_PT013H.grib2 2026-04-17 02:42 1.0M
20260417T00Z_MSC_RDPS_RelativeHumidity_IsbL-1000_RLatLon0.09_PT013H.grib2 2026-04-17 02:42 1.0M
20260417T00Z_MSC_RDPS_RelativeHumidity_IsbL-1015_RLatLon0.09_PT013H.grib2 2026-04-17 02:42 1.0M
20260417T00Z_MSC_RDPS_Runoff-Accum_Sfc_RLatLon0.09_PT013H.grib2 2026-04-17 02:42 34K
20260417T00Z_MSC_RDPS_SWEATIndex_Sfc_RLatLon0.09_PT013H.grib2 2026-04-17 02:42 2.4M
20260417T00Z_MSC_RDPS_SeeingIndex_EAtm_RLatLon0.09_PT013H.grib2 2026-04-17 02:42 1.0M
20260417T00Z_MSC_RDPS_SensibleHeatNetFlux_Sfc_RLatLon0.09_PT013H.grib2 2026-04-17 02:42 314K
20260417T00Z_MSC_RDPS_ShowalterIndex_IsbL-0500_RLatLon0.09_PT013H.grib2 2026-04-17 02:42 2.6M
20260417T00Z_MSC_RDPS_SkyTransparencyIndex_EAtm_RLatLon0.09_PT013H.grib2 2026-04-17 02:42 721K
20260417T00Z_MSC_RDPS_Snow-Accum1h_Sfc_RLatLon0.09_PT013H.grib2 2026-04-17 02:42 560K
20260417T00Z_MSC_RDPS_Snow-Accum_Sfc_RLatLon0.09_PT013H.grib2 2026-04-17 02:42 741K
20260417T00Z_MSC_RDPS_SnowDensity_Sfc_RLatLon0.09_PT013H.grib2 2026-04-17 02:42 176K
20260417T00Z_MSC_RDPS_SnowDepth_Sfc_RLatLon0.09_PT013H.grib2 2026-04-17 02:42 734K
20260417T00Z_MSC_RDPS_SoilTemp_DBS-0to10cm_RLatLon0.09_PT013H.grib2 2026-04-17 02:42 211K
20260417T00Z_MSC_RDPS_SoilTemp_Sfc_RLatLon0.09_PT013H.grib2 2026-04-17 02:42 276K
20260417T00Z_MSC_RDPS_SoilVolumetricIceContent_Sfc_RLatLon0.09_PT013H.grib2 2026-04-17 02:42 178K
20260417T00Z_MSC_RDPS_SoilVolumetricWaterContent_DBS-0to10cm_RLatLon0.09_PT013H.grib2 2026-04-17 02:42 245K
20260417T00Z_MSC_RDPS_SoilVolumetricWaterContent_DBS-0to1cm_RLatLon0.09_PT013H.grib2 2026-04-17 02:42 330K
20260417T00Z_MSC_RDPS_SpecificHumidity_AGL-120m_RLatLon0.09_PT013H.grib2 2026-04-17 02:42 479K
20260417T00Z_MSC_RDPS_SpecificHumidity_AGL-2m_RLatLon0.09_PT013H.grib2 2026-04-17 02:42 780K
20260417T00Z_MSC_RDPS_SpecificHumidity_AGL-40m_RLatLon0.09_PT013H.grib2 2026-04-17 02:42 485K
20260417T00Z_MSC_RDPS_SpecificHumidity_AGL-80m_RLatLon0.09_PT013H.grib2 2026-04-17 02:42 481K
20260417T00Z_MSC_RDPS_SpecificHumidity_IsbL-0001_RLatLon0.09_PT013H.grib2 2026-04-17 02:42 298K
20260417T00Z_MSC_RDPS_SpecificHumidity_IsbL-0005_RLatLon0.09_PT013H.grib2 2026-04-17 02:42 345K
20260417T00Z_MSC_RDPS_SpecificHumidity_IsbL-0010_RLatLon0.09_PT013H.grib2 2026-04-17 02:42 379K
20260417T00Z_MSC_RDPS_SpecificHumidity_IsbL-0020_RLatLon0.09_PT013H.grib2 2026-04-17 02:42 381K
20260417T00Z_MSC_RDPS_SpecificHumidity_IsbL-0030_RLatLon0.09_PT013H.grib2 2026-04-17 02:42 440K
20260417T00Z_MSC_RDPS_SpecificHumidity_IsbL-0050_RLatLon0.09_PT013H.grib2 2026-04-17 02:42 467K
20260417T00Z_MSC_RDPS_SpecificHumidity_IsbL-0100_RLatLon0.09_PT013H.grib2 2026-04-17 02:42 388K
20260417T00Z_MSC_RDPS_SpecificHumidity_IsbL-0150_RLatLon0.09_PT013H.grib2 2026-04-17 02:42 427K
20260417T00Z_MSC_RDPS_SpecificHumidity_IsbL-0175_RLatLon0.09_PT013H.grib2 2026-04-17 02:42 522K
20260417T00Z_MSC_RDPS_SpecificHumidity_IsbL-0200_RLatLon0.09_PT013H.grib2 2026-04-17 02:42 532K
20260417T00Z_MSC_RDPS_SpecificHumidity_IsbL-0225_RLatLon0.09_PT013H.grib2 2026-04-17 02:42 535K
20260417T00Z_MSC_RDPS_SpecificHumidity_IsbL-0250_RLatLon0.09_PT013H.grib2 2026-04-17 02:42 541K
20260417T00Z_MSC_RDPS_SpecificHumidity_IsbL-0275_RLatLon0.09_PT013H.grib2 2026-04-17 02:42 457K
20260417T00Z_MSC_RDPS_SpecificHumidity_IsbL-0300_RLatLon0.09_PT013H.grib2 2026-04-17 02:42 527K
20260417T00Z_MSC_RDPS_SpecificHumidity_IsbL-0350_RLatLon0.09_PT013H.grib2 2026-04-17 02:42 516K
20260417T00Z_MSC_RDPS_SpecificHumidity_IsbL-0400_RLatLon0.09_PT013H.grib2 2026-04-17 02:42 498K
20260417T00Z_MSC_RDPS_SpecificHumidity_IsbL-0450_RLatLon0.09_PT013H.grib2 2026-04-17 02:42 551K
20260417T00Z_MSC_RDPS_SpecificHumidity_IsbL-0500_RLatLon0.09_PT013H.grib2 2026-04-17 02:42 488K
20260417T00Z_MSC_RDPS_SpecificHumidity_IsbL-0550_RLatLon0.09_PT013H.grib2 2026-04-17 02:42 547K
20260417T00Z_MSC_RDPS_SpecificHumidity_IsbL-0600_RLatLon0.09_PT013H.grib2 2026-04-17 02:42 619K
20260417T00Z_MSC_RDPS_SpecificHumidity_IsbL-0650_RLatLon0.09_PT013H.grib2 2026-04-17 02:42 534K
20260417T00Z_MSC_RDPS_SpecificHumidity_IsbL-0700_RLatLon0.09_PT013H.grib2 2026-04-17 02:42 573K
20260417T00Z_MSC_RDPS_SpecificHumidity_IsbL-0750_RLatLon0.09_PT013H.grib2 2026-04-17 02:42 630K
20260417T00Z_MSC_RDPS_SpecificHumidity_IsbL-0800_RLatLon0.09_PT013H.grib2 2026-04-17 02:42 709K
20260417T00Z_MSC_RDPS_SpecificHumidity_IsbL-0850_RLatLon0.09_PT013H.grib2 2026-04-17 02:42 784K
20260417T00Z_MSC_RDPS_SpecificHumidity_IsbL-0875_RLatLon0.09_PT013H.grib2 2026-04-17 02:42 809K
20260417T00Z_MSC_RDPS_SpecificHumidity_IsbL-0900_RLatLon0.09_PT013H.grib2 2026-04-17 02:42 819K
20260417T00Z_MSC_RDPS_SpecificHumidity_IsbL-0925_RLatLon0.09_PT013H.grib2 2026-04-17 02:42 822K
20260417T00Z_MSC_RDPS_SpecificHumidity_IsbL-0950_RLatLon0.09_PT013H.grib2 2026-04-17 02:42 823K
20260417T00Z_MSC_RDPS_SpecificHumidity_IsbL-0970_RLatLon0.09_PT013H.grib2 2026-04-17 02:42 817K
20260417T00Z_MSC_RDPS_SpecificHumidity_IsbL-0985_RLatLon0.09_PT013H.grib2 2026-04-17 02:42 811K
20260417T00Z_MSC_RDPS_SpecificHumidity_IsbL-1000_RLatLon0.09_PT013H.grib2 2026-04-17 02:42 803K
20260417T00Z_MSC_RDPS_SpecificHumidity_IsbL-1015_RLatLon0.09_PT013H.grib2 2026-04-17 02:42 792K
20260417T00Z_MSC_RDPS_SpecificHumidity_Sfc_RLatLon0.09_PT013H.grib2 2026-04-17 02:42 284K
20260417T00Z_MSC_RDPS_StormRelativeHelicity_EtaL-10000_RLatLon0.09_PT013H.grib2 2026-04-17 02:42 1.1M
20260417T00Z_MSC_RDPS_StormSeverityIndex_EtaL-10000_RLatLon0.09_PT013H.grib2 2026-04-17 02:42 1.2M
20260417T00Z_MSC_RDPS_Thickness_IsbL-0850to0700_RLatLon0.09_PT013H.grib2 2026-04-17 02:42 175K
20260417T00Z_MSC_RDPS_Thickness_IsbL-1000to0500_RLatLon0.09_PT013H.grib2 2026-04-17 02:42 198K
20260417T00Z_MSC_RDPS_Thickness_IsbL-1000to0850_RLatLon0.09_PT013H.grib2 2026-04-17 02:42 262K
20260417T00Z_MSC_RDPS_TotalCloudCover_Sfc_RLatLon0.09_PT013H.grib2 2026-04-17 02:42 671K
20260417T00Z_MSC_RDPS_TotalTotalsIndex_Sfc_RLatLon0.09_PT013H.grib2 2026-04-17 02:42 2.4M
20260417T00Z_MSC_RDPS_UVIndex-ClearSky_Sfc_RLatLon0.09_PT013H.grib2 2026-04-17 02:42 172K
20260417T00Z_MSC_RDPS_UVIndex_Sfc_RLatLon0.09_PT013H.grib2 2026-04-17 02:42 382K
20260417T00Z_MSC_RDPS_UpwardLongwaveRadiationFlux_NTAtm_RLatLon0.09_PT013H.grib2 2026-04-17 02:42 479K
20260417T00Z_MSC_RDPS_UpwardShortwaveRadiationFlux_NTAtm_RLatLon0.09_PT013H.grib2 2026-04-17 02:42 340K
20260417T00Z_MSC_RDPS_VerticalVelocity_IsbL-0250_RLatLon0.09_PT013H.grib2 2026-04-17 02:42 723K
20260417T00Z_MSC_RDPS_VerticalVelocity_IsbL-0500_RLatLon0.09_PT013H.grib2 2026-04-17 02:42 539K
20260417T00Z_MSC_RDPS_VerticalVelocity_IsbL-0700_RLatLon0.09_PT013H.grib2 2026-04-17 02:42 588K
20260417T00Z_MSC_RDPS_VerticalVelocity_IsbL-0850_RLatLon0.09_PT013H.grib2 2026-04-17 02:42 681K
20260417T00Z_MSC_RDPS_VerticalWindShear_EtaL-6500_RLatLon0.09_PT013H.grib2 2026-04-17 02:42 1.2M
20260417T00Z_MSC_RDPS_WindChill_Sfc_RLatLon0.09_PT013H.grib2 2026-04-17 02:42 1.3M
20260417T00Z_MSC_RDPS_WindDir_AGL-10m_RLatLon0.09_PT013H.grib2 2026-04-17 02:42 1.0M
20260417T00Z_MSC_RDPS_WindDir_AGL-120m_RLatLon0.09_PT013H.grib2 2026-04-17 02:42 626K
20260417T00Z_MSC_RDPS_WindDir_AGL-40m_RLatLon0.09_PT013H.grib2 2026-04-17 02:42 663K
20260417T00Z_MSC_RDPS_WindDir_AGL-80m_RLatLon0.09_PT013H.grib2 2026-04-17 02:42 640K
20260417T00Z_MSC_RDPS_WindDir_IsbL-0001_RLatLon0.09_PT013H.grib2 2026-04-17 02:42 269K
20260417T00Z_MSC_RDPS_WindDir_IsbL-0005_RLatLon0.09_PT013H.grib2 2026-04-17 02:42 342K
20260417T00Z_MSC_RDPS_WindDir_IsbL-0010_RLatLon0.09_PT013H.grib2 2026-04-17 02:42 358K
20260417T00Z_MSC_RDPS_WindDir_IsbL-0020_RLatLon0.09_PT013H.grib2 2026-04-17 02:42 375K
20260417T00Z_MSC_RDPS_WindDir_IsbL-0030_RLatLon0.09_PT013H.grib2 2026-04-17 02:42 380K
20260417T00Z_MSC_RDPS_WindDir_IsbL-0050_RLatLon0.09_PT013H.grib2 2026-04-17 02:42 392K
20260417T00Z_MSC_RDPS_WindDir_IsbL-0100_RLatLon0.09_PT013H.grib2 2026-04-17 02:42 384K
20260417T00Z_MSC_RDPS_WindDir_IsbL-0150_RLatLon0.09_PT013H.grib2 2026-04-17 02:42 375K
20260417T00Z_MSC_RDPS_WindDir_IsbL-0175_RLatLon0.09_PT013H.grib2 2026-04-17 02:42 398K
20260417T00Z_MSC_RDPS_WindDir_IsbL-0200_RLatLon0.09_PT013H.grib2 2026-04-17 02:42 418K
20260417T00Z_MSC_RDPS_WindDir_IsbL-0225_RLatLon0.09_PT013H.grib2 2026-04-17 02:42 428K
20260417T00Z_MSC_RDPS_WindDir_IsbL-0250_RLatLon0.09_PT013H.grib2 2026-04-17 02:42 431K
20260417T00Z_MSC_RDPS_WindDir_IsbL-0275_RLatLon0.09_PT013H.grib2 2026-04-17 02:42 454K
20260417T00Z_MSC_RDPS_WindDir_IsbL-0300_RLatLon0.09_PT013H.grib2 2026-04-17 02:42 455K
20260417T00Z_MSC_RDPS_WindDir_IsbL-0350_RLatLon0.09_PT013H.grib2 2026-04-17 02:42 474K
20260417T00Z_MSC_RDPS_WindDir_IsbL-0400_RLatLon0.09_PT013H.grib2 2026-04-17 02:42 494K
20260417T00Z_MSC_RDPS_WindDir_IsbL-0450_RLatLon0.09_PT013H.grib2 2026-04-17 02:42 516K
20260417T00Z_MSC_RDPS_WindDir_IsbL-0500_RLatLon0.09_PT013H.grib2 2026-04-17 02:42 545K
20260417T00Z_MSC_RDPS_WindDir_IsbL-0550_RLatLon0.09_PT013H.grib2 2026-04-17 02:42 570K
20260417T00Z_MSC_RDPS_WindDir_IsbL-0600_RLatLon0.09_PT013H.grib2 2026-04-17 02:42 597K
20260417T00Z_MSC_RDPS_WindDir_IsbL-0650_RLatLon0.09_PT013H.grib2 2026-04-17 02:42 638K
20260417T00Z_MSC_RDPS_WindDir_IsbL-0700_RLatLon0.09_PT013H.grib2 2026-04-17 02:42 682K
20260417T00Z_MSC_RDPS_WindDir_IsbL-0750_RLatLon0.09_PT013H.grib2 2026-04-17 02:42 726K
20260417T00Z_MSC_RDPS_WindDir_IsbL-0800_RLatLon0.09_PT013H.grib2 2026-04-17 02:42 791K
20260417T00Z_MSC_RDPS_WindDir_IsbL-0850_RLatLon0.09_PT013H.grib2 2026-04-17 02:42 869K
20260417T00Z_MSC_RDPS_WindDir_IsbL-0875_RLatLon0.09_PT013H.grib2 2026-04-17 02:42 899K
20260417T00Z_MSC_RDPS_WindDir_IsbL-0900_RLatLon0.09_PT013H.grib2 2026-04-17 02:42 918K
20260417T00Z_MSC_RDPS_WindDir_IsbL-0925_RLatLon0.09_PT013H.grib2 2026-04-17 02:42 932K
20260417T00Z_MSC_RDPS_WindDir_IsbL-0950_RLatLon0.09_PT013H.grib2 2026-04-17 02:42 936K
20260417T00Z_MSC_RDPS_WindDir_IsbL-0970_RLatLon0.09_PT013H.grib2 2026-04-17 02:42 941K
20260417T00Z_MSC_RDPS_WindDir_IsbL-0985_RLatLon0.09_PT013H.grib2 2026-04-17 02:42 951K
20260417T00Z_MSC_RDPS_WindDir_IsbL-1000_RLatLon0.09_PT013H.grib2 2026-04-17 02:42 971K
20260417T00Z_MSC_RDPS_WindDir_IsbL-1015_RLatLon0.09_PT013H.grib2 2026-04-17 02:42 1.0M
20260417T00Z_MSC_RDPS_WindGust-Max_AGL-10m_RLatLon0.09_PT013H.grib2 2026-04-17 02:42 971K
20260417T00Z_MSC_RDPS_WindGust-Min_AGL-10m_RLatLon0.09_PT013H.grib2 2026-04-17 02:42 1.0M
20260417T00Z_MSC_RDPS_WindGust_AGL-10m_RLatLon0.09_PT013H.grib2 2026-04-17 02:42 1.0M
20260417T00Z_MSC_RDPS_WindSpeed_AGL-10m_RLatLon0.09_PT013H.grib2 2026-04-17 02:42 856K
20260417T00Z_MSC_RDPS_WindSpeed_AGL-120m_RLatLon0.09_PT013H.grib2 2026-04-17 02:42 561K
20260417T00Z_MSC_RDPS_WindSpeed_AGL-40m_RLatLon0.09_PT013H.grib2 2026-04-17 02:42 552K
20260417T00Z_MSC_RDPS_WindSpeed_AGL-80m_RLatLon0.09_PT013H.grib2 2026-04-17 02:42 562K
20260417T00Z_MSC_RDPS_WindSpeed_IsbL-0001_RLatLon0.09_PT013H.grib2 2026-04-17 02:42 292K
20260417T00Z_MSC_RDPS_WindSpeed_IsbL-0005_RLatLon0.09_PT013H.grib2 2026-04-17 02:42 335K
20260417T00Z_MSC_RDPS_WindSpeed_IsbL-0010_RLatLon0.09_PT013H.grib2 2026-04-17 02:42 346K
20260417T00Z_MSC_RDPS_WindSpeed_IsbL-0020_RLatLon0.09_PT013H.grib2 2026-04-17 02:42 365K
20260417T00Z_MSC_RDPS_WindSpeed_IsbL-0030_RLatLon0.09_PT013H.grib2 2026-04-17 02:42 330K
20260417T00Z_MSC_RDPS_WindSpeed_IsbL-0050_RLatLon0.09_PT013H.grib2 2026-04-17 02:42 369K
20260417T00Z_MSC_RDPS_WindSpeed_IsbL-0100_RLatLon0.09_PT013H.grib2 2026-04-17 02:42 449K
20260417T00Z_MSC_RDPS_WindSpeed_IsbL-0150_RLatLon0.09_PT013H.grib2 2026-04-17 02:42 369K
20260417T00Z_MSC_RDPS_WindSpeed_IsbL-0175_RLatLon0.09_PT013H.grib2 2026-04-17 02:42 416K
20260417T00Z_MSC_RDPS_WindSpeed_IsbL-0200_RLatLon0.09_PT013H.grib2 2026-04-17 02:42 433K
20260417T00Z_MSC_RDPS_WindSpeed_IsbL-0225_RLatLon0.09_PT013H.grib2 2026-04-17 02:42 442K
20260417T00Z_MSC_RDPS_WindSpeed_IsbL-0250_RLatLon0.09_PT013H.grib2 2026-04-17 02:42 449K
20260417T00Z_MSC_RDPS_WindSpeed_IsbL-0275_RLatLon0.09_PT013H.grib2 2026-04-17 02:42 466K
20260417T00Z_MSC_RDPS_WindSpeed_IsbL-0300_RLatLon0.09_PT013H.grib2 2026-04-17 02:42 463K
20260417T00Z_MSC_RDPS_WindSpeed_IsbL-0350_RLatLon0.09_PT013H.grib2 2026-04-17 02:42 473K
20260417T00Z_MSC_RDPS_WindSpeed_IsbL-0400_RLatLon0.09_PT013H.grib2 2026-04-17 02:42 459K
20260417T00Z_MSC_RDPS_WindSpeed_IsbL-0450_RLatLon0.09_PT013H.grib2 2026-04-17 02:42 457K
20260417T00Z_MSC_RDPS_WindSpeed_IsbL-0500_RLatLon0.09_PT013H.grib2 2026-04-17 02:42 457K
20260417T00Z_MSC_RDPS_WindSpeed_IsbL-0550_RLatLon0.09_PT013H.grib2 2026-04-17 02:42 578K
20260417T00Z_MSC_RDPS_WindSpeed_IsbL-0600_RLatLon0.09_PT013H.grib2 2026-04-17 02:42 632K
20260417T00Z_MSC_RDPS_WindSpeed_IsbL-0650_RLatLon0.09_PT013H.grib2 2026-04-17 02:42 654K
20260417T00Z_MSC_RDPS_WindSpeed_IsbL-0700_RLatLon0.09_PT013H.grib2 2026-04-17 02:42 677K
20260417T00Z_MSC_RDPS_WindSpeed_IsbL-0750_RLatLon0.09_PT013H.grib2 2026-04-17 02:42 662K
20260417T00Z_MSC_RDPS_WindSpeed_IsbL-0800_RLatLon0.09_PT013H.grib2 2026-04-17 02:42 712K
20260417T00Z_MSC_RDPS_WindSpeed_IsbL-0850_RLatLon0.09_PT013H.grib2 2026-04-17 02:42 771K
20260417T00Z_MSC_RDPS_WindSpeed_IsbL-0875_RLatLon0.09_PT013H.grib2 2026-04-17 02:42 793K
20260417T00Z_MSC_RDPS_WindSpeed_IsbL-0900_RLatLon0.09_PT013H.grib2 2026-04-17 02:42 810K
20260417T00Z_MSC_RDPS_WindSpeed_IsbL-0925_RLatLon0.09_PT013H.grib2 2026-04-17 02:42 824K
20260417T00Z_MSC_RDPS_WindSpeed_IsbL-0950_RLatLon0.09_PT013H.grib2 2026-04-17 02:42 873K
20260417T00Z_MSC_RDPS_WindSpeed_IsbL-0970_RLatLon0.09_PT013H.grib2 2026-04-17 02:42 871K
20260417T00Z_MSC_RDPS_WindSpeed_IsbL-0985_RLatLon0.09_PT013H.grib2 2026-04-17 02:42 863K
20260417T00Z_MSC_RDPS_WindSpeed_IsbL-1000_RLatLon0.09_PT013H.grib2 2026-04-17 02:42 861K
20260417T00Z_MSC_RDPS_WindSpeed_IsbL-1015_RLatLon0.09_PT013H.grib2 2026-04-17 02:42 854K
20260417T00Z_MSC_RDPS_WindU_AGL-10m_RLatLon0.09_PT013H.grib2 2026-04-17 02:42 440K
20260417T00Z_MSC_RDPS_WindU_AGL-120m_RLatLon0.09_PT013H.grib2 2026-04-17 02:42 428K
20260417T00Z_MSC_RDPS_WindU_AGL-40m_RLatLon0.09_PT013H.grib2 2026-04-17 02:42 548K
20260417T00Z_MSC_RDPS_WindU_AGL-80m_RLatLon0.09_PT013H.grib2 2026-04-17 02:42 429K
20260417T00Z_MSC_RDPS_WindU_IsbL-0001_RLatLon0.09_PT013H.grib2 2026-04-17 02:42 263K
20260417T00Z_MSC_RDPS_WindU_IsbL-0005_RLatLon0.09_PT013H.grib2 2026-04-17 02:42 301K
20260417T00Z_MSC_RDPS_WindU_IsbL-0010_RLatLon0.09_PT013H.grib2 2026-04-17 02:42 311K
20260417T00Z_MSC_RDPS_WindU_IsbL-0020_RLatLon0.09_PT013H.grib2 2026-04-17 02:42 255K
20260417T00Z_MSC_RDPS_WindU_IsbL-0030_RLatLon0.09_PT013H.grib2 2026-04-17 02:42 256K
20260417T00Z_MSC_RDPS_WindU_IsbL-0050_RLatLon0.09_PT013H.grib2 2026-04-17 02:42 362K
20260417T00Z_MSC_RDPS_WindU_IsbL-0100_RLatLon0.09_PT013H.grib2 2026-04-17 02:42 343K
20260417T00Z_MSC_RDPS_WindU_IsbL-0150_RLatLon0.09_PT013H.grib2 2026-04-17 02:42 386K
20260417T00Z_MSC_RDPS_WindU_IsbL-0175_RLatLon0.09_PT013H.grib2 2026-04-17 02:42 411K
20260417T00Z_MSC_RDPS_WindU_IsbL-0200_RLatLon0.09_PT013H.grib2 2026-04-17 02:42 428K
20260417T00Z_MSC_RDPS_WindU_IsbL-0225_RLatLon0.09_PT013H.grib2 2026-04-17 02:42 436K
20260417T00Z_MSC_RDPS_WindU_IsbL-0250_RLatLon0.09_PT013H.grib2 2026-04-17 02:42 341K
20260417T00Z_MSC_RDPS_WindU_IsbL-0275_RLatLon0.09_PT013H.grib2 2026-04-17 02:42 356K
20260417T00Z_MSC_RDPS_WindU_IsbL-0300_RLatLon0.09_PT013H.grib2 2026-04-17 02:42 353K
20260417T00Z_MSC_RDPS_WindU_IsbL-0350_RLatLon0.09_PT013H.grib2 2026-04-17 02:42 359K
20260417T00Z_MSC_RDPS_WindU_IsbL-0400_RLatLon0.09_PT013H.grib2 2026-04-17 02:42 463K
20260417T00Z_MSC_RDPS_WindU_IsbL-0450_RLatLon0.09_PT013H.grib2 2026-04-17 02:42 462K
20260417T00Z_MSC_RDPS_WindU_IsbL-0500_RLatLon0.09_PT013H.grib2 2026-04-17 02:42 463K
20260417T00Z_MSC_RDPS_WindU_IsbL-0550_RLatLon0.09_PT013H.grib2 2026-04-17 02:42 466K
20260417T00Z_MSC_RDPS_WindU_IsbL-0600_RLatLon0.09_PT013H.grib2 2026-04-17 02:42 477K
20260417T00Z_MSC_RDPS_WindU_IsbL-0650_RLatLon0.09_PT013H.grib2 2026-04-17 02:42 496K
20260417T00Z_MSC_RDPS_WindU_IsbL-0700_RLatLon0.09_PT013H.grib2 2026-04-17 02:42 515K
20260417T00Z_MSC_RDPS_WindU_IsbL-0750_RLatLon0.09_PT013H.grib2 2026-04-17 02:42 539K
20260417T00Z_MSC_RDPS_WindU_IsbL-0800_RLatLon0.09_PT013H.grib2 2026-04-17 02:42 570K
20260417T00Z_MSC_RDPS_WindU_IsbL-0850_RLatLon0.09_PT013H.grib2 2026-04-17 02:42 634K
20260417T00Z_MSC_RDPS_WindU_IsbL-0875_RLatLon0.09_PT013H.grib2 2026-04-17 02:42 651K
20260417T00Z_MSC_RDPS_WindU_IsbL-0900_RLatLon0.09_PT013H.grib2 2026-04-17 02:42 665K
20260417T00Z_MSC_RDPS_WindU_IsbL-0925_RLatLon0.09_PT013H.grib2 2026-04-17 02:42 674K
20260417T00Z_MSC_RDPS_WindU_IsbL-0950_RLatLon0.09_PT013H.grib2 2026-04-17 02:42 667K
20260417T00Z_MSC_RDPS_WindU_IsbL-0970_RLatLon0.09_PT013H.grib2 2026-04-17 02:42 664K
20260417T00Z_MSC_RDPS_WindU_IsbL-0985_RLatLon0.09_PT013H.grib2 2026-04-17 02:42 802K
20260417T00Z_MSC_RDPS_WindU_IsbL-1000_RLatLon0.09_PT013H.grib2 2026-04-17 02:42 801K
20260417T00Z_MSC_RDPS_WindU_IsbL-1015_RLatLon0.09_PT013H.grib2 2026-04-17 02:42 795K
20260417T00Z_MSC_RDPS_WindV_AGL-10m_RLatLon0.09_PT013H.grib2 2026-04-17 02:42 436K
20260417T00Z_MSC_RDPS_WindV_AGL-120m_RLatLon0.09_PT013H.grib2 2026-04-17 02:42 425K
20260417T00Z_MSC_RDPS_WindV_AGL-40m_RLatLon0.09_PT013H.grib2 2026-04-17 02:42 544K
20260417T00Z_MSC_RDPS_WindV_AGL-80m_RLatLon0.09_PT013H.grib2 2026-04-17 02:42 426K
20260417T00Z_MSC_RDPS_WindV_IsbL-0001_RLatLon0.09_PT013H.grib2 2026-04-17 02:42 206K
20260417T00Z_MSC_RDPS_WindV_IsbL-0005_RLatLon0.09_PT013H.grib2 2026-04-17 02:42 299K
20260417T00Z_MSC_RDPS_WindV_IsbL-0010_RLatLon0.09_PT013H.grib2 2026-04-17 02:42 338K
20260417T00Z_MSC_RDPS_WindV_IsbL-0020_RLatLon0.09_PT013H.grib2 2026-04-17 02:42 319K
20260417T00Z_MSC_RDPS_WindV_IsbL-0030_RLatLon0.09_PT013H.grib2 2026-04-17 02:42 322K
20260417T00Z_MSC_RDPS_WindV_IsbL-0050_RLatLon0.09_PT013H.grib2 2026-04-17 02:42 361K
20260417T00Z_MSC_RDPS_WindV_IsbL-0100_RLatLon0.09_PT013H.grib2 2026-04-17 02:42 434K
20260417T00Z_MSC_RDPS_WindV_IsbL-0150_RLatLon0.09_PT013H.grib2 2026-04-17 02:42 383K
20260417T00Z_MSC_RDPS_WindV_IsbL-0175_RLatLon0.09_PT013H.grib2 2026-04-17 02:42 315K
20260417T00Z_MSC_RDPS_WindV_IsbL-0200_RLatLon0.09_PT013H.grib2 2026-04-17 02:42 331K
20260417T00Z_MSC_RDPS_WindV_IsbL-0225_RLatLon0.09_PT013H.grib2 2026-04-17 02:42 337K
20260417T00Z_MSC_RDPS_WindV_IsbL-0250_RLatLon0.09_PT013H.grib2 2026-04-17 02:42 341K
20260417T00Z_MSC_RDPS_WindV_IsbL-0275_RLatLon0.09_PT013H.grib2 2026-04-17 02:42 354K
20260417T00Z_MSC_RDPS_WindV_IsbL-0300_RLatLon0.09_PT013H.grib2 2026-04-17 02:42 350K
20260417T00Z_MSC_RDPS_WindV_IsbL-0350_RLatLon0.09_PT013H.grib2 2026-04-17 02:42 358K
20260417T00Z_MSC_RDPS_WindV_IsbL-0400_RLatLon0.09_PT013H.grib2 2026-04-17 02:42 359K
20260417T00Z_MSC_RDPS_WindV_IsbL-0450_RLatLon0.09_PT013H.grib2 2026-04-17 02:42 460K
20260417T00Z_MSC_RDPS_WindV_IsbL-0500_RLatLon0.09_PT013H.grib2 2026-04-17 02:42 461K
20260417T00Z_MSC_RDPS_WindV_IsbL-0550_RLatLon0.09_PT013H.grib2 2026-04-17 02:42 464K
20260417T00Z_MSC_RDPS_WindV_IsbL-0600_RLatLon0.09_PT013H.grib2 2026-04-17 02:42 457K
20260417T00Z_MSC_RDPS_WindV_IsbL-0650_RLatLon0.09_PT013H.grib2 2026-04-17 02:42 477K
20260417T00Z_MSC_RDPS_WindV_IsbL-0700_RLatLon0.09_PT013H.grib2 2026-04-17 02:42 498K
20260417T00Z_MSC_RDPS_WindV_IsbL-0750_RLatLon0.09_PT013H.grib2 2026-04-17 02:42 523K
20260417T00Z_MSC_RDPS_WindV_IsbL-0800_RLatLon0.09_PT013H.grib2 2026-04-17 02:42 566K
20260417T00Z_MSC_RDPS_WindV_IsbL-0850_RLatLon0.09_PT013H.grib2 2026-04-17 02:42 619K
20260417T00Z_MSC_RDPS_WindV_IsbL-0875_RLatLon0.09_PT013H.grib2 2026-04-17 02:42 640K
20260417T00Z_MSC_RDPS_WindV_IsbL-0900_RLatLon0.09_PT013H.grib2 2026-04-17 02:42 655K
20260417T00Z_MSC_RDPS_WindV_IsbL-0925_RLatLon0.09_PT013H.grib2 2026-04-17 02:42 664K
20260417T00Z_MSC_RDPS_WindV_IsbL-0950_RLatLon0.09_PT013H.grib2 2026-04-17 02:42 662K
20260417T00Z_MSC_RDPS_WindV_IsbL-0970_RLatLon0.09_PT013H.grib2 2026-04-17 02:42 658K
20260417T00Z_MSC_RDPS_WindV_IsbL-0985_RLatLon0.09_PT013H.grib2 2026-04-17 02:42 795K
20260417T00Z_MSC_RDPS_WindV_IsbL-1000_RLatLon0.09_PT013H.grib2 2026-04-17 02:42 794K
20260417T00Z_MSC_RDPS_WindV_IsbL-1015_RLatLon0.09_PT013H.grib2 2026-04-17 02:42 788K